Time,TemperatureF,DewpointF,PressureIn,WindDirection,WindDirectionDegrees,WindSpeedMPH,WindSpeedGustMPH,Humidity,HourlyPrecipIn,Conditions,Clouds,dailyrainin,SoftwareType,DateUTC
2013-01-31 00:01:00,8.8,5.0,29.75,West,276,1.0,8.0,84,0.00,,OVC060,0.00,VWS V14.01,2013-01-31 06:01:00,
2013-01-31 00:07:00,8.7,4.9,29.75,West,276,7.0,7.0,84,0.00,,OVC060,0.00,VWS V14.01,2013-01-31 06:07:00,
2013-01-31 00:13:00,8.7,4.9,29.76,West,280,3.0,4.0,84,0.00,,OVC060,0.00,VWS V14.01,2013-01-31 06:13:00,
2013-01-31 00:19:00,8.6,4.8,29.76,WNW,300,5.0,11.0,84,0.00,,OVC060,0.00,VWS V14.01,2013-01-31 06:19:00,
2013-01-31 00:25:00,8.4,4.6,29.76,West,273,3.0,5.0,84,0.00,,OVC060,0.00,VWS V14.01,2013-01-31 06:25:00,
2013-01-31 00:31:00,8.3,4.5,29.76,WNW,302,5.0,7.0,84,0.00,,OVC060,0.00,VWS V14.01,2013-01-31 06:31:00,
2013-01-31 00:37:00,8.3,4.5,29.76,WNW,293,3.0,6.0,84,0.00,,OVC060,0.00,VWS V14.01,2013-01-31 06:37:00,
2013-01-31 00:43:00,8.0,4.2,29.77,West,276,5.0,7.0,84,0.00,,OVC060,0.00,VWS V14.01,2013-01-31 06:43:00,
2013-01-31 00:49:00,7.6,3.8,29.77,WNW,291,5.0,8.0,84,0.00,,CLR,0.00,VWS V14.01,2013-01-31 06:49:00,
2013-01-31 00:55:00,7.3,3.5,29.77,WNW,293,5.0,10.0,84,0.00,,CLR,0.00,VWS V14.01,2013-01-31 06:55:00,
2013-01-31 01:01:00,7.2,3.4,29.77,WNW,297,6.0,9.0,84,0.00,,SCT024,0.00,VWS V14.01,2013-01-31 07:01:00,
2013-01-31 01:08:00,7.2,3.4,29.77,WNW,287,5.0,5.0,84,0.00,,SCT024,0.00,VWS V14.01,2013-01-31 07:08:00,
2013-01-31 01:14:00,7.0,2.9,29.78,WNW,302,4.0,6.0,83,0.00,,SCT024,0.00,VWS V14.01,2013-01-31 07:14:00,
2013-01-31 01:20:00,6.8,2.7,29.78,NW,311,3.0,7.0,83,0.00,,SCT024,0.00,VWS V14.01,2013-01-31 07:20:00,
2013-01-31 01:26:00,6.7,2.6,29.78,West,276,3.0,10.0,83,0.00,,SCT024,0.00,VWS V14.01,2013-01-31 07:26:00,
2013-01-31 01:31:00,6.8,2.7,29.78,WSW,256,6.0,7.0,83,0.00,,SCT024,0.00,VWS V14.01,2013-01-31 07:31:00,
2013-01-31 01:36:00,6.8,2.7,29.78,WNW,290,4.0,8.0,83,0.00,,SCT024,0.00,VWS V14.01,2013-01-31 07:36:00,
2013-01-31 01:42:00,6.8,2.7,29.78,NW,313,3.0,3.0,83,0.00,,SCT024,0.00,VWS V14.01,2013-01-31 07:42:00,
2013-01-31 01:48:00,6.7,2.9,29.78,WNW,287,4.0,5.0,84,0.00,,,0.00,VWS V14.01,2013-01-31 07:48:00,
2013-01-31 01:54:00,6.6,2.5,29.79,West,276,7.0,9.0,83,0.00,,,0.00,VWS V14.01,2013-01-31 07:54:00,
2013-01-31 02:00:00,6.6,2.5,29.79,WNW,295,6.0,6.0,83,0.00,,,0.00,VWS V14.01,2013-01-31 08:00:00,
2013-01-31 02:05:00,6.6,2.5,29.79,WNW,297,4.0,5.0,83,0.00,,OVC100,0.00,VWS V14.01,2013-01-31 08:05:00,
2013-01-31 02:11:00,6.6,2.5,29.79,WNW,287,5.0,10.0,83,0.00,,OVC100,0.00,VWS V14.01,2013-01-31 08:11:00,
2013-01-31 02:16:00,6.6,2.5,29.80,WNW,302,3.0,4.0,83,0.00,,OVC100,0.00,VWS V14.01,2013-01-31 08:16:00,
2013-01-31 02:22:00,6.5,2.5,29.80,West,269,2.0,3.0,83,0.00,,OVC100,0.00,VWS V14.01,2013-01-31 08:22:00,
2013-01-31 02:28:00,6.5,2.5,29.80,West,279,3.0,8.0,83,0.00,,OVC100,0.00,VWS V14.01,2013-01-31 08:28:00,
2013-01-31 02:34:00,6.4,2.3,29.80,West,273,5.0,9.0,83,0.00,,OVC100,0.00,VWS V14.01,2013-01-31 08:34:00,
2013-01-31 02:40:00,6.2,2.2,29.80,WNW,300,4.0,9.0,83,0.00,,OVC100,0.00,VWS V14.01,2013-01-31 08:40:00,
2013-01-31 02:46:00,6.2,2.2,29.80,WNW,285,3.0,10.0,83,0.00,,BKN048,0.00,VWS V14.01,2013-01-31 08:46:00,
2013-01-31 02:51:00,6.2,2.2,29.80,WNW,283,7.0,7.0,83,0.00,,BKN048,0.00,VWS V14.01,2013-01-31 08:51:00,
2013-01-31 02:56:00,6.2,2.2,29.80,WNW,300,3.0,3.0,83,0.00,,BKN048,0.00,VWS V14.01,2013-01-31 08:56:00,
2013-01-31 03:02:00,6.1,1.8,29.80,NNW,328,4.0,4.0,82,0.00,,BKN060,0.00,VWS V14.01,2013-01-31 09:02:00,
2013-01-31 03:08:00,6.0,1.4,29.81,WNW,290,4.0,6.0,81,0.00,,BKN060,0.00,VWS V14.01,2013-01-31 09:08:00,
2013-01-31 03:14:00,5.9,1.3,29.81,NW,324,3.0,8.0,81,0.00,,BKN060,0.00,VWS V14.01,2013-01-31 09:14:00,
2013-01-31 03:20:00,5.9,1.3,29.81,WNW,287,2.0,7.0,81,0.00,,BKN060,0.00,VWS V14.01,2013-01-31 09:20:00,
2013-01-31 03:26:00,5.8,1.5,29.81,WNW,284,8.0,9.0,82,0.00,,BKN060,0.00,VWS V14.01,2013-01-31 09:26:00,
2013-01-31 03:31:00,5.8,1.5,29.81,WNW,284,11.0,11.0,82,0.00,,BKN060,0.00,VWS V14.01,2013-01-31 09:31:00,
2013-01-31 03:36:00,5.7,1.4,29.81,WNW,301,4.0,8.0,82,0.00,,BKN060,0.00,VWS V14.01,2013-01-31 09:36:00,
2013-01-31 03:42:00,5.5,1.5,29.81,West,279,11.0,11.0,83,0.00,,BKN060,0.00,VWS V14.01,2013-01-31 09:42:00,
2013-01-31 03:48:00,5.3,1.3,29.81,WNW,287,5.0,6.0,83,0.00,,OVC048,0.00,VWS V14.01,2013-01-31 09:48:00,
2013-01-31 03:54:00,5.1,1.3,29.81,WNW,287,5.0,11.0,84,0.00,,OVC048,0.00,VWS V14.01,2013-01-31 09:54:00,
2013-01-31 04:00:00,5.0,1.2,29.81,West,278,5.0,9.0,84,0.00,,OVC048,0.00,VWS V14.01,2013-01-31 10:00:00,
2013-01-31 04:06:00,4.8,1.0,29.82,West,264,9.0,9.0,84,0.00,,OVC048,0.00,VWS V14.01,2013-01-31 10:06:00,
2013-01-31 04:11:00,4.6,0.8,29.82,West,274,7.0,10.0,84,0.00,,OVC048,0.00,VWS V14.01,2013-01-31 10:11:00,
2013-01-31 04:16:00,4.4,0.6,29.82,WSW,246,4.0,6.0,84,0.00,,OVC048,0.00,VWS V14.01,2013-01-31 10:16:00,
2013-01-31 04:22:00,4.2,0.4,29.83,West,274,9.0,9.0,84,0.00,,OVC048,0.00,VWS V14.01,2013-01-31 10:22:00,
2013-01-31 04:29:00,4.0,0.5,29.83,West,271,3.0,5.0,85,0.00,,OVC048,0.00,VWS V14.01,2013-01-31 10:29:00,
2013-01-31 04:35:00,3.8,0.1,29.83,West,273,5.0,9.0,84,0.00,,OVC048,0.00,VWS V14.01,2013-01-31 10:35:00,
2013-01-31 04:40:00,3.7,0.0,29.83,WNW,294,4.0,7.0,84,0.00,,OVC048,0.00,VWS V14.01,2013-01-31 10:40:00,
2013-01-31 04:45:00,3.6,-0.1,29.84,WSW,256,6.0,8.0,84,0.00,,OVC048,0.00,VWS V14.01,2013-01-31 10:45:00,
2013-01-31 04:50:00,3.6,-0.1,29.84,West,281,6.0,7.0,84,0.00,,OVC060,0.00,VWS V14.01,2013-01-31 10:50:00,
2013-01-31 04:55:00,3.5,-0.2,29.84,West,271,8.0,10.0,84,0.00,,OVC060,0.00,VWS V14.01,2013-01-31 10:55:00,
2013-01-31 05:00:00,3.4,-0.3,29.84,WNW,290,3.0,10.0,84,0.00,,OVC060,0.00,VWS V14.01,2013-01-31 11:00:00,
2013-01-31 05:05:00,3.4,-0.3,29.84,WNW,302,4.0,7.0,84,0.00,,,0.00,VWS V14.01,2013-01-31 11:05:00,
2013-01-31 05:11:00,3.3,-0.4,29.84,West,279,5.0,9.0,84,0.00,,,0.00,VWS V14.01,2013-01-31 11:11:00,
2013-01-31 05:16:00,3.3,-0.4,29.84,WNW,300,4.0,8.0,84,0.00,,,0.00,VWS V14.01,2013-01-31 11:16:00,
2013-01-31 05:23:00,3.2,-0.5,29.84,NW,314,4.0,7.0,84,0.00,,,0.00,VWS V14.01,2013-01-31 11:23:00,
2013-01-31 05:29:00,3.1,-0.6,29.85,WNW,287,4.0,7.0,84,0.00,,,0.00,VWS V14.01,2013-01-31 11:29:00,
2013-01-31 05:35:00,3.0,-0.7,29.85,WNW,294,5.0,13.0,84,0.00,,,0.00,VWS V14.01,2013-01-31 11:35:00,
2013-01-31 05:41:00,2.9,-1.1,29.86,WNW,294,5.0,11.0,83,0.00,,,0.00,VWS V14.01,2013-01-31 11:41:00,
2013-01-31 05:47:00,2.8,-0.9,29.86,West,279,5.0,11.0,84,0.00,,OVC060,0.00,VWS V14.01,2013-01-31 11:47:00,
2013-01-31 05:53:00,2.7,-1.0,29.86,WNW,283,5.0,10.0,84,0.00,,OVC060,0.00,VWS V14.01,2013-01-31 11:53:00,
2013-01-31 05:59:00,2.6,-1.1,29.87,West,280,7.0,8.0,84,0.00,,OVC060,0.00,VWS V14.01,2013-01-31 11:59:00,
2013-01-31 06:05:00,2.5,-1.5,29.87,WNW,293,5.0,10.0,83,0.00,,,0.00,VWS V14.01,2013-01-31 12:05:00,
2013-01-31 06:11:00,2.5,-1.5,29.87,West,265,6.0,9.0,83,0.00,,,0.00,VWS V14.01,2013-01-31 12:11:00,
2013-01-31 06:16:00,2.4,-1.6,29.88,West,281,4.0,9.0,83,0.00,,,0.00,VWS V14.01,2013-01-31 12:16:00,
2013-01-31 06:21:00,2.4,-1.6,29.88,WNW,282,5.0,8.0,83,0.00,,,0.00,VWS V14.01,2013-01-31 12:21:00,
2013-01-31 06:27:00,2.4,-1.6,29.88,WNW,297,3.0,7.0,83,0.00,,,0.00,VWS V14.01,2013-01-31 12:27:00,
2013-01-31 06:33:00,2.3,-1.7,29.88,West,281,6.0,7.0,83,0.00,,,0.00,VWS V14.01,2013-01-31 12:33:00,
2013-01-31 06:39:00,2.1,-1.6,29.89,WSW,253,8.0,11.0,84,0.00,,,0.00,VWS V14.01,2013-01-31 12:39:00,
2013-01-31 06:45:00,1.9,-1.8,29.89,WNW,300,4.0,8.0,84,0.00,,,0.00,VWS V14.01,2013-01-31 12:45:00,
2013-01-31 06:50:00,1.8,-1.9,29.89,WNW,284,6.0,7.0,84,0.00,,,0.00,VWS V14.01,2013-01-31 12:50:00,
2013-01-31 06:55:00,1.7,-2.0,29.89,WSW,257,8.0,8.0,84,0.00,,,0.00,VWS V14.01,2013-01-31 12:55:00,
2013-01-31 07:01:00,1.6,-2.1,29.90,West,273,5.0,9.0,84,0.00,,,0.00,VWS V14.01,2013-01-31 13:01:00,
2013-01-31 07:07:00,1.5,-2.0,29.90,West,278,4.0,10.0,85,0.00,,,0.00,VWS V14.01,2013-01-31 13:07:00,
2013-01-31 07:13:00,1.3,-2.4,29.90,West,280,8.0,12.0,84,0.00,,,0.00,VWS V14.01,2013-01-31 13:13:00,
2013-01-31 07:19:00,1.1,-2.6,29.90,West,267,10.0,10.0,84,0.00,,,0.00,VWS V14.01,2013-01-31 13:19:00,
2013-01-31 07:25:00,0.9,-2.8,29.91,WNW,300,4.0,9.0,84,0.00,,,0.00,VWS V14.01,2013-01-31 13:25:00,
2013-01-31 07:31:00,0.7,-3.0,29.91,West,274,9.0,9.0,84,0.00,,,0.00,VWS V14.01,2013-01-31 13:31:00,
2013-01-31 07:38:00,0.4,-3.3,29.91,WNW,295,5.0,5.0,84,0.00,,,0.00,VWS V14.01,2013-01-31 13:38:00,
2013-01-31 07:44:00,0.3,-3.4,29.92,WSW,255,6.0,8.0,84,0.00,,,0.00,VWS V14.01,2013-01-31 13:44:00,
2013-01-31 07:50:00,0.2,-3.5,29.92,West,274,6.0,8.0,84,0.00,,,0.00,VWS V14.01,2013-01-31 13:50:00,
2013-01-31 07:55:00,0.2,-3.5,29.92,West,260,5.0,8.0,84,0.00,,,0.00,VWS V14.01,2013-01-31 13:55:00,
2013-01-31 08:00:00,0.2,-3.5,29.92,WNW,285,7.0,9.0,84,0.00,,,0.00,VWS V14.01,2013-01-31 14:00:00,
2013-01-31 08:05:00,0.2,-3.5,29.93,WSW,248,6.0,10.0,84,0.00,,,0.00,VWS V14.01,2013-01-31 14:05:00,
2013-01-31 08:10:00,0.2,-3.5,29.93,West,278,8.0,10.0,84,0.00,,,0.00,VWS V14.01,2013-01-31 14:10:00,
2013-01-31 08:16:00,0.3,-3.4,29.93,WNW,285,4.0,9.0,84,0.00,,,0.00,VWS V14.01,2013-01-31 14:16:00,
2013-01-31 08:21:00,0.3,-3.6,29.93,NW,307,6.0,9.0,83,0.00,,,0.00,VWS V14.01,2013-01-31 14:21:00,
2013-01-31 08:26:00,0.4,-3.5,29.94,WNW,293,5.0,5.0,83,0.00,,,0.00,VWS V14.01,2013-01-31 14:26:00,
2013-01-31 08:32:00,0.4,-3.5,29.94,WNW,294,9.0,9.0,83,0.00,,,0.00,VWS V14.01,2013-01-31 14:32:00,
2013-01-31 08:38:00,0.5,-3.7,29.94,WNW,291,5.0,11.0,82,0.00,,,0.00,VWS V14.01,2013-01-31 14:38:00,
2013-01-31 08:44:00,0.5,-3.7,29.95,West,280,10.0,10.0,82,0.00,,,0.00,VWS V14.01,2013-01-31 14:44:00,
2013-01-31 08:50:00,0.6,-3.8,29.95,WNW,302,3.0,6.0,81,0.00,,,0.00,VWS V14.01,2013-01-31 14:50:00,
2013-01-31 08:55:00,0.5,-3.9,29.95,West,279,5.0,12.0,81,0.00,,,0.00,VWS V14.01,2013-01-31 14:55:00,
2013-01-31 09:00:00,0.5,-3.7,29.96,WNW,293,5.0,9.0,82,0.00,,,0.00,VWS V14.01,2013-01-31 15:00:00,
2013-01-31 09:05:00,0.5,-3.7,29.96,WSW,242,6.0,9.0,82,0.00,,,0.00,VWS V14.01,2013-01-31 15:05:00,
2013-01-31 09:10:00,0.7,-3.5,29.96,West,276,5.0,7.0,82,0.00,,,0.00,VWS V14.01,2013-01-31 15:10:00,
2013-01-31 09:16:00,0.8,-3.4,29.97,WNW,293,7.0,9.0,82,0.00,,,0.00,VWS V14.01,2013-01-31 15:16:00,
2013-01-31 09:21:00,0.9,-3.3,29.97,WNW,302,3.0,9.0,82,0.00,,,0.00,VWS V14.01,2013-01-31 15:21:00,
2013-01-31 09:26:00,0.9,-3.8,29.98,WNW,290,10.0,10.0,80,0.00,,,0.00,VWS V14.01,2013-01-31 15:26:00,
2013-01-31 09:33:00,0.6,-3.8,29.98,WNW,290,8.0,11.0,81,0.00,,,0.00,VWS V14.01,2013-01-31 15:33:00,
2013-01-31 09:39:00,0.8,-3.7,29.98,WNW,282,11.0,11.0,81,0.00,,,0.00,VWS V14.01,2013-01-31 15:39:00,
2013-01-31 09:45:00,0.5,-4.5,29.99,WNW,297,7.0,10.0,79,0.00,,,0.00,VWS V14.01,2013-01-31 15:45:00,
2013-01-31 09:50:00,0.7,-4.0,29.99,WNW,282,11.0,11.0,80,0.00,,,0.00,VWS V14.01,2013-01-31 15:50:00,
2013-01-31 09:55:00,0.5,-4.5,30.00,NW,311,4.0,11.0,79,0.00,,,0.00,VWS V14.01,2013-01-31 15:55:00,
2013-01-31 10:00:00,0.5,-4.5,30.00,West,273,5.0,14.0,79,0.00,,,0.00,VWS V14.01,2013-01-31 16:00:00,
2013-01-31 10:05:00,0.6,-4.4,30.00,WNW,300,6.0,13.0,79,0.00,,,0.00,VWS V14.01,2013-01-31 16:05:00,
2013-01-31 10:10:00,0.6,-4.6,30.01,West,271,12.0,13.0,78,0.00,,,0.00,VWS V14.01,2013-01-31 16:10:00,
2013-01-31 10:15:00,0.5,-4.7,30.01,WNW,302,6.0,12.0,78,0.00,,,0.00,VWS V14.01,2013-01-31 16:15:00,
2013-01-31 10:21:00,0.4,-4.8,30.01,WNW,291,5.0,12.0,78,0.00,,,0.00,VWS V14.01,2013-01-31 16:21:00,
2013-01-31 10:27:00,0.5,-4.5,30.01,West,278,18.0,18.0,79,0.00,,,0.00,VWS V14.01,2013-01-31 16:27:00,
2013-01-31 10:33:00,0.4,-4.6,30.02,WNW,284,4.0,10.0,79,0.00,,,0.00,VWS V14.01,2013-01-31 16:33:00,
2013-01-31 10:39:00,0.7,-4.3,30.02,WSW,238,7.0,13.0,79,0.00,,,0.00,VWS V14.01,2013-01-31 16:39:00,
2013-01-31 10:45:00,0.6,-4.6,30.02,WNW,290,7.0,12.0,78,0.00,,,0.00,VWS V14.01,2013-01-31 16:45:00,
2013-01-31 10:51:00,0.7,-4.5,30.03,WNW,293,5.0,8.0,78,0.00,,,0.00,VWS V14.01,2013-01-31 16:51:00,
2013-01-31 10:56:00,0.9,-4.3,30.03,West,281,6.0,14.0,78,0.00,,,0.00,VWS V14.01,2013-01-31 16:56:00,
2013-01-31 11:01:00,0.7,-4.5,30.03,West,274,9.0,12.0,78,0.00,,,0.00,VWS V14.01,2013-01-31 17:01:00,
2013-01-31 11:07:00,0.6,-4.6,30.03,WNW,302,5.0,7.0,78,0.00,,,0.00,VWS V14.01,2013-01-31 17:07:00,
2013-01-31 11:13:00,0.3,-4.9,30.03,WNW,284,7.0,8.0,78,0.00,,,0.00,VWS V14.01,2013-01-31 17:13:00,
2013-01-31 11:19:00,0.2,-5.0,30.03,West,269,5.0,12.0,78,0.00,,,0.00,VWS V14.01,2013-01-31 17:19:00,
2013-01-31 11:25:00,0.4,-4.6,30.04,NW,311,6.0,10.0,79,0.00,,,0.00,VWS V14.01,2013-01-31 17:25:00,
2013-01-31 11:30:00,0.6,-4.6,30.04,WNW,285,7.0,13.0,78,0.00,,,0.00,VWS V14.01,2013-01-31 17:30:00,
2013-01-31 11:36:00,0.8,-4.2,30.04,WNW,283,12.0,12.0,79,0.00,,CLR,0.00,VWS V14.01,2013-01-31 17:36:00,
2013-01-31 11:41:00,0.5,-4.7,30.04,WNW,290,7.0,14.0,78,0.00,,CLR,0.00,VWS V14.01,2013-01-31 17:41:00,
2013-01-31 11:48:00,0.2,-4.8,30.04,West,276,6.0,14.0,79,0.00,,,0.00,VWS V14.01,2013-01-31 17:48:00,
2013-01-31 11:54:00,0.3,-4.4,30.05,WNW,288,8.0,10.0,80,0.00,,,0.00,VWS V14.01,2013-01-31 17:54:00,
2013-01-31 12:00:00,0.3,-4.7,30.05,WSW,245,12.0,12.0,79,0.00,,,0.00,VWS V14.01,2013-01-31 18:00:00,
2013-01-31 12:06:00,0.6,-4.4,30.05,West,272,8.0,10.0,79,0.00,,,0.00,VWS V14.01,2013-01-31 18:06:00,
2013-01-31 12:12:00,1.0,-4.0,30.05,WNW,290,11.0,11.0,79,0.00,,,0.00,VWS V14.01,2013-01-31 18:12:00,
2013-01-31 12:18:00,1.0,-4.0,30.05,NW,305,6.0,12.0,79,0.00,,CLR,0.00,VWS V14.01,2013-01-31 18:18:00,
2013-01-31 12:24:00,1.1,-3.9,30.05,WNW,287,9.0,9.0,79,0.00,,CLR,0.00,VWS V14.01,2013-01-31 18:24:00,
2013-01-31 12:30:00,1.3,-3.7,30.05,West,273,8.0,8.0,79,0.00,,CLR,0.00,VWS V14.01,2013-01-31 18:30:00,
2013-01-31 12:35:00,1.5,-3.2,30.06,West,278,4.0,11.0,80,0.00,,,0.00,VWS V14.01,2013-01-31 18:35:00,
2013-01-31 12:41:00,1.9,-2.6,30.05,West,278,6.0,12.0,81,0.00,,,0.00,VWS V14.01,2013-01-31 18:41:00,
2013-01-31 12:48:00,2.1,-2.4,30.06,West,260,12.0,12.0,81,0.00,,,0.00,VWS V14.01,2013-01-31 18:48:00,
2013-01-31 12:54:00,1.9,-2.6,30.06,WSW,256,7.0,12.0,81,0.00,,,0.00,VWS V14.01,2013-01-31 18:54:00,
2013-01-31 13:00:00,2.0,-2.5,30.06,West,277,9.0,14.0,81,0.00,,,0.00,VWS V14.01,2013-01-31 19:00:00,
2013-01-31 13:06:00,2.2,-2.3,30.06,WNW,283,7.0,13.0,81,0.00,,,0.00,VWS V14.01,2013-01-31 19:06:00,
2013-01-31 13:12:00,2.3,-2.2,30.06,West,269,9.0,9.0,81,0.00,,,0.00,VWS V14.01,2013-01-31 19:12:00,
2013-01-31 13:18:00,2.5,-2.2,30.06,WNW,297,8.0,13.0,80,0.00,,,0.00,VWS V14.01,2013-01-31 19:18:00,
2013-01-31 13:24:00,2.4,-2.9,30.07,WNW,291,8.0,15.0,78,0.00,,,0.00,VWS V14.01,2013-01-31 19:24:00,
2013-01-31 13:30:00,2.1,-3.7,30.07,NNW,330,5.0,11.0,76,0.00,,,0.00,VWS V14.01,2013-01-31 19:30:00,
2013-01-31 13:36:00,2.2,-3.6,30.07,West,280,8.0,8.0,76,0.00,,,0.00,VWS V14.01,2013-01-31 19:36:00,
2013-01-31 13:41:00,2.2,-3.3,30.08,WNW,300,6.0,8.0,77,0.00,,,0.00,VWS V14.01,2013-01-31 19:41:00,
2013-01-31 13:46:00,2.4,-3.2,30.08,WNW,283,6.0,6.0,77,0.00,,,0.00,VWS V14.01,2013-01-31 19:46:00,
2013-01-31 13:52:00,2.6,-2.7,30.08,West,277,6.0,8.0,78,0.00,,,0.00,VWS V14.01,2013-01-31 19:52:00,
2013-01-31 13:58:00,2.7,-2.3,30.08,West,280,5.0,6.0,79,0.00,,,0.00,VWS V14.01,2013-01-31 19:58:00,
2013-01-31 14:04:00,2.6,-2.4,30.08,WNW,284,6.0,14.0,79,0.00,,,0.00,VWS V14.01,2013-01-31 20:04:00,
2013-01-31 14:10:00,2.7,-2.0,30.08,WNW,300,7.0,11.0,80,0.00,,,0.00,VWS V14.01,2013-01-31 20:10:00,
2013-01-31 14:15:00,2.5,-2.8,30.08,West,272,6.0,13.0,78,0.00,,,0.00,VWS V14.01,2013-01-31 20:15:00,
2013-01-31 14:20:00,2.7,-2.6,30.09,WNW,284,10.0,11.0,78,0.00,,,0.00,VWS V14.01,2013-01-31 20:20:00,
2013-01-31 14:25:00,2.5,-2.8,30.09,WNW,287,6.0,10.0,78,0.00,,,0.00,VWS V14.01,2013-01-31 20:25:00,
2013-01-31 14:30:00,2.4,-2.6,30.09,WNW,287,3.0,7.0,79,0.00,,,0.00,VWS V14.01,2013-01-31 20:30:00,
2013-01-31 14:35:00,2.4,-2.3,30.09,WNW,287,7.0,9.0,80,0.00,,,0.00,VWS V14.01,2013-01-31 20:35:00,
2013-01-31 14:42:00,2.7,-2.0,30.09,NW,316,5.0,9.0,80,0.00,,,0.00,VWS V14.01,2013-01-31 20:42:00,
2013-01-31 14:48:00,2.7,-3.1,30.10,WNW,285,6.0,8.0,76,0.00,,,0.00,VWS V14.01,2013-01-31 20:48:00,
2013-01-31 14:54:00,2.4,-3.7,30.10,West,278,3.0,12.0,75,0.00,,,0.00,VWS V14.01,2013-01-31 20:54:00,
2013-01-31 15:00:00,2.4,-3.7,30.11,West,278,7.0,10.0,75,0.00,,,0.00,VWS V14.01,2013-01-31 21:00:00,
2013-01-31 15:05:00,2.6,-3.5,30.11,WNW,285,12.0,12.0,75,0.00,,,0.00,VWS V14.01,2013-01-31 21:05:00,
2013-01-31 15:10:00,2.4,-3.7,30.11,West,274,6.0,12.0,75,0.00,,,0.00,VWS V14.01,2013-01-31 21:10:00,
2013-01-31 15:16:00,2.5,-3.6,30.12,WNW,302,4.0,13.0,75,0.00,,,0.00,VWS V14.01,2013-01-31 21:16:00,
2013-01-31 15:22:00,2.4,-4.0,30.12,West,280,6.0,7.0,74,0.00,,,0.00,VWS V14.01,2013-01-31 21:22:00,
2013-01-31 15:28:00,2.1,-4.6,30.12,WNW,295,5.0,12.0,73,0.00,,,0.00,VWS V14.01,2013-01-31 21:28:00,
2013-01-31 15:34:00,2.1,-4.3,30.12,WNW,297,9.0,9.0,74,0.00,,CLR,0.00,VWS V14.01,2013-01-31 21:34:00,
2013-01-31 15:40:00,2.0,-4.7,30.13,WNW,283,5.0,11.0,73,0.00,,CLR,0.00,VWS V14.01,2013-01-31 21:40:00,
2013-01-31 15:45:00,2.0,-4.7,30.13,NW,314,5.0,10.0,73,0.00,,CLR,0.00,VWS V14.01,2013-01-31 21:45:00,
2013-01-31 15:50:00,2.1,-4.3,30.13,WNW,288,6.0,10.0,74,0.00,,CLR,0.00,VWS V14.01,2013-01-31 21:50:00,
2013-01-31 15:55:00,2.0,-4.4,30.14,West,276,5.0,12.0,74,0.00,,CLR,0.00,VWS V14.01,2013-01-31 21:55:00,
2013-01-31 16:01:00,1.9,-4.7,30.14,NW,311,9.0,9.0,73,0.00,,CLR,0.00,VWS V14.01,2013-01-31 22:01:00,
2013-01-31 16:07:00,1.8,-4.8,30.14,WNW,297,8.0,8.0,73,0.00,,CLR,0.00,VWS V14.01,2013-01-31 22:07:00,
2013-01-31 16:13:00,1.4,-4.9,30.15,NW,307,5.0,12.0,74,0.00,,CLR,0.00,VWS V14.01,2013-01-31 22:13:00,
2013-01-31 16:19:00,1.3,-4.8,30.15,WNW,285,5.0,11.0,75,0.00,,CLR,0.00,VWS V14.01,2013-01-31 22:19:00,
2013-01-31 16:25:00,1.0,-5.1,30.15,WNW,287,7.0,10.0,75,0.00,,CLR,0.00,VWS V14.01,2013-01-31 22:25:00,
2013-01-31 16:30:00,0.9,-4.9,30.16,WNW,300,4.0,10.0,76,0.00,,CLR,0.00,VWS V14.01,2013-01-31 22:30:00,
2013-01-31 16:35:00,0.8,-5.0,30.16,WNW,288,3.0,9.0,76,0.00,,CLR,0.00,VWS V14.01,2013-01-31 22:35:00,
2013-01-31 16:41:00,0.7,-4.8,30.16,West,259,6.0,10.0,77,0.00,,CLR,0.00,VWS V14.01,2013-01-31 22:41:00,
2013-01-31 16:47:00,0.5,-5.3,30.16,WNW,292,10.0,14.0,76,0.00,,CLR,0.00,VWS V14.01,2013-01-31 22:47:00,
2013-01-31 16:53:00,0.3,-5.7,30.17,WNW,284,8.0,9.0,75,0.00,,CLR,0.00,VWS V14.01,2013-01-31 22:53:00,
2013-01-31 16:59:00,0.3,-5.7,30.17,West,278,10.0,11.0,75,0.00,,CLR,0.00,VWS V14.01,2013-01-31 22:59:00,
2013-01-31 17:05:00,0.1,-5.9,30.17,WNW,302,5.0,9.0,75,0.00,,CLR,0.00,VWS V14.01,2013-01-31 23:05:00,
2013-01-31 17:10:00,-0.1,-5.8,30.17,NW,304,6.0,9.0,76,0.00,,CLR,0.00,VWS V14.01,2013-01-31 23:10:00,
2013-01-31 17:15:00,-0.3,-6.0,30.17,WNW,297,10.0,11.0,76,0.00,,CLR,0.00,VWS V14.01,2013-01-31 23:15:00,
2013-01-31 17:20:00,-0.5,-6.2,30.18,WSW,242,6.0,10.0,76,0.00,,CLR,0.00,VWS V14.01,2013-01-31 23:20:00,
2013-01-31 17:26:00,-0.8,-6.5,30.18,West,276,9.0,11.0,76,0.00,,CLR,0.00,VWS V14.01,2013-01-31 23:26:00,
2013-01-31 17:31:00,-1.1,-6.8,30.19,NW,304,6.0,9.0,76,0.00,,CLR,0.00,VWS V14.01,2013-01-31 23:31:00,
2013-01-31 17:37:00,-1.3,-7.0,30.19,WNW,291,2.0,7.0,76,0.00,,CLR,0.00,VWS V14.01,2013-01-31 23:37:00,
2013-01-31 17:43:00,-1.6,-7.3,30.19,West,280,10.0,12.0,76,0.00,,CLR,0.00,VWS V14.01,2013-01-31 23:43:00,
2013-01-31 17:49:00,-1.9,-7.9,30.19,West,274,6.0,11.0,75,0.00,,CLR,0.00,VWS V14.01,2013-01-31 23:49:00,
2013-01-31 17:55:00,-2.1,-8.1,30.20,WNW,300,7.0,8.0,75,0.00,,CLR,0.00,VWS V14.01,2013-01-31 23:55:00,
2013-01-31 18:00:00,-2.3,-8.3,30.20,WNW,293,6.0,9.0,75,0.00,,CLR,0.00,VWS V14.01,2013-02-01 00:00:00,
2013-01-31 18:05:00,-2.4,-8.1,30.20,WNW,300,5.0,7.0,76,0.00,,CLR,0.00,VWS V14.01,2013-02-01 00:05:00,
2013-01-31 18:10:00,-2.6,-8.3,30.21,NNW,331,6.0,7.0,76,0.00,,CLR,0.00,VWS V14.01,2013-02-01 00:10:00,
2013-01-31 18:15:00,-2.6,-8.3,30.21,WNW,290,4.0,8.0,76,0.00,,CLR,0.00,VWS V14.01,2013-02-01 00:15:00,
2013-01-31 18:20:00,-2.7,-8.4,30.22,West,260,5.0,7.0,76,0.00,,CLR,0.00,VWS V14.01,2013-02-01 00:20:00,
2013-01-31 18:25:00,-2.8,-8.5,30.22,WNW,283,5.0,9.0,76,0.00,,CLR,0.00,VWS V14.01,2013-02-01 00:25:00,
2013-01-31 18:30:00,-2.9,-8.6,30.22,WNW,300,6.0,10.0,76,0.00,,CLR,0.00,VWS V14.01,2013-02-01 00:30:00,
2013-01-31 18:35:00,-3.0,-8.7,30.22,WNW,292,6.0,7.0,76,0.00,,CLR,0.00,VWS V14.01,2013-02-01 00:35:00,
2013-01-31 18:40:00,-3.1,-8.8,30.22,WNW,294,3.0,9.0,76,0.00,,CLR,0.00,VWS V14.01,2013-02-01 00:40:00,
2013-01-31 18:45:00,-3.3,-9.0,30.22,West,262,10.0,10.0,76,0.00,,CLR,0.00,VWS V14.01,2013-02-01 00:45:00,
2013-01-31 18:52:00,-3.4,-9.1,30.22,West,278,8.0,8.0,76,0.00,,CLR,0.00,VWS V14.01,2013-02-01 00:52:00,
2013-01-31 18:58:00,-3.5,-9.1,30.23,West,271,6.0,6.0,76,0.00,,CLR,0.00,VWS V14.01,2013-02-01 00:58:00,
2013-01-31 19:04:00,-3.8,-9.4,30.23,WNW,295,8.0,9.0,76,0.00,,CLR,0.00,VWS V14.01,2013-02-01 01:04:00,
2013-01-31 19:10:00,-3.9,-9.5,30.23,WNW,292,3.0,9.0,76,0.00,,CLR,0.00,VWS V14.01,2013-02-01 01:10:00,
2013-01-31 19:15:00,-4.1,-9.7,30.23,WNW,291,5.0,11.0,76,0.00,,CLR,0.00,VWS V14.01,2013-02-01 01:15:00,
2013-01-31 19:20:00,-4.2,-9.8,30.24,WNW,292,3.0,7.0,76,0.00,,CLR,0.00,VWS V14.01,2013-02-01 01:20:00,
2013-01-31 19:26:00,-4.3,-9.9,30.24,WNW,300,4.0,4.0,76,0.00,,CLR,0.00,VWS V14.01,2013-02-01 01:26:00,
2013-01-31 19:32:00,-4.4,-10.0,30.24,WNW,290,4.0,4.0,76,0.00,,CLR,0.00,VWS V14.01,2013-02-01 01:32:00,
2013-01-31 19:38:00,-4.5,-10.1,30.24,WNW,287,5.0,6.0,76,0.00,,CLR,0.00,VWS V14.01,2013-02-01 01:38:00,
2013-01-31 19:44:00,-4.5,-10.1,30.24,West,259,7.0,10.0,76,0.00,,CLR,0.00,VWS V14.01,2013-02-01 01:44:00,
2013-01-31 19:50:00,-4.6,-10.2,30.24,West,271,2.0,8.0,76,0.00,,CLR,0.00,VWS V14.01,2013-02-01 01:50:00,
2013-01-31 19:55:00,-4.8,-10.4,30.25,WNW,293,3.0,7.0,76,0.00,,CLR,0.00,VWS V14.01,2013-02-01 01:55:00,
2013-01-31 20:00:00,-4.9,-10.2,30.25,WNW,300,3.0,6.0,77,0.00,,CLR,0.00,VWS V14.01,2013-02-01 02:00:00,
2013-01-31 20:06:00,-4.9,-10.2,30.25,West,265,6.0,11.0,77,0.00,,CLR,0.00,VWS V14.01,2013-02-01 02:06:00,
2013-01-31 20:12:00,-5.1,-10.7,30.25,West,274,8.0,8.0,76,0.00,,CLR,0.00,VWS V14.01,2013-02-01 02:12:00,
2013-01-31 20:18:00,-5.2,-10.8,30.26,WNW,297,5.0,6.0,76,0.00,,CLR,0.00,VWS V14.01,2013-02-01 02:18:00,
2013-01-31 20:24:00,-5.3,-10.9,30.26,WNW,285,4.0,5.0,76,0.00,,CLR,0.00,VWS V14.01,2013-02-01 02:24:00,
2013-01-31 20:30:00,-5.4,-11.0,30.26,WSW,256,10.0,10.0,76,0.00,,CLR,0.00,VWS V14.01,2013-02-01 02:30:00,
2013-01-31 20:35:00,-5.5,-11.1,30.27,West,281,4.0,6.0,76,0.00,,CLR,0.00,VWS V14.01,2013-02-01 02:35:00,
2013-01-31 20:40:00,-5.6,-11.2,30.27,WNW,284,5.0,14.0,76,0.00,,CLR,0.00,VWS V14.01,2013-02-01 02:40:00,
2013-01-31 20:45:00,-5.7,-11.3,30.27,West,278,2.0,9.0,76,0.00,,CLR,0.00,VWS V14.01,2013-02-01 02:45:00,
2013-01-31 20:50:00,-5.7,-11.3,30.27,WNW,288,7.0,7.0,76,0.00,,CLR,0.00,VWS V14.01,2013-02-01 02:50:00,
2013-01-31 20:55:00,-5.8,-11.4,30.27,West,266,3.0,8.0,76,0.00,,CLR,0.00,VWS V14.01,2013-02-01 02:55:00,
2013-01-31 21:00:00,-5.9,-11.5,30.27,West,271,5.0,11.0,76,0.00,,CLR,0.00,VWS V14.01,2013-02-01 03:00:00,
2013-01-31 21:05:00,-6.0,-11.6,30.27,West,281,6.0,7.0,76,0.00,,CLR,0.00,VWS V14.01,2013-02-01 03:05:00,
2013-01-31 21:10:00,-6.0,-11.6,30.27,WNW,288,4.0,6.0,76,0.00,,CLR,0.00,VWS V14.01,2013-02-01 03:10:00,
2013-01-31 21:16:00,-6.1,-11.7,30.28,NW,307,9.0,9.0,76,0.00,,CLR,0.00,VWS V14.01,2013-02-01 03:16:00,
2013-01-31 21:23:00,-6.2,-11.8,30.28,WNW,298,4.0,8.0,76,0.00,,CLR,0.00,VWS V14.01,2013-02-01 03:23:00,
2013-01-31 21:29:00,-6.3,-11.9,30.28,WNW,297,6.0,6.0,76,0.00,,CLR,0.00,VWS V14.01,2013-02-01 03:29:00,
2013-01-31 21:35:00,-6.4,-12.0,30.28,West,273,4.0,7.0,76,0.00,,CLR,0.00,VWS V14.01,2013-02-01 03:35:00,
2013-01-31 21:40:00,-6.4,-12.0,30.28,WNW,300,5.0,7.0,76,0.00,,CLR,0.00,VWS V14.01,2013-02-01 03:40:00,
2013-01-31 21:45:00,-6.5,-12.1,30.28,West,270,7.0,7.0,76,0.00,,CLR,0.00,VWS V14.01,2013-02-01 03:45:00,
2013-01-31 21:50:00,-6.5,-12.3,30.29,WNW,283,5.0,12.0,75,0.00,,CLR,0.00,VWS V14.01,2013-02-01 03:50:00,
2013-01-31 21:55:00,-6.6,-12.4,30.29,WNW,298,5.0,7.0,75,0.00,,CLR,0.00,VWS V14.01,2013-02-01 03:55:00,
2013-01-31 22:00:00,-6.6,-12.4,30.29,WNW,287,8.0,9.0,75,0.00,,CLR,0.00,VWS V14.01,2013-02-01 04:00:00,
2013-01-31 22:05:00,-6.6,-12.4,30.29,WNW,291,4.0,8.0,75,0.00,,CLR,0.00,VWS V14.01,2013-02-01 04:05:00,
2013-01-31 22:11:00,-6.7,-12.5,30.29,WNW,293,4.0,4.0,75,0.00,,CLR,0.00,VWS V14.01,2013-02-01 04:11:00,
2013-01-31 22:17:00,-6.8,-12.6,30.29,NNW,328,6.0,8.0,75,0.00,,CLR,0.00,VWS V14.01,2013-02-01 04:17:00,
2013-01-31 22:23:00,-6.8,-12.6,30.30,NW,312,4.0,6.0,75,0.00,,CLR,0.00,VWS V14.01,2013-02-01 04:23:00,
2013-01-31 22:29:00,-6.9,-12.7,30.29,West,280,4.0,7.0,75,0.00,,CLR,0.00,VWS V14.01,2013-02-01 04:29:00,
2013-01-31 22:35:00,-6.9,-12.7,30.30,WNW,290,9.0,9.0,75,0.00,,CLR,0.00,VWS V14.01,2013-02-01 04:35:00,
2013-01-31 22:40:00,-7.0,-12.8,30.30,West,266,9.0,9.0,75,0.00,,CLR,0.00,VWS V14.01,2013-02-01 04:40:00,
2013-01-31 22:45:00,-7.0,-12.8,30.30,West,270,7.0,9.0,75,0.00,,CLR,0.00,VWS V14.01,2013-02-01 04:45:00,
2013-01-31 22:50:00,-7.1,-12.9,30.30,WNW,291,6.0,8.0,75,0.00,,CLR,0.00,VWS V14.01,2013-02-01 04:50:00,
2013-01-31 22:55:00,-7.1,-12.9,30.30,WNW,283,6.0,9.0,75,0.00,,CLR,0.00,VWS V14.01,2013-02-01 04:55:00,
2013-01-31 23:00:00,-7.1,-13.2,30.30,West,281,6.0,11.0,74,0.00,,CLR,0.00,VWS V14.01,2013-02-01 05:00:00,
2013-01-31 23:03:00,-7.2,-13.3,30.30,West,267,3.0,8.0,74,0.00,,CLR,0.00,VWS V14.01,2013-02-01 05:03:00,
2013-01-31 23:05:00,-7.2,-13.3,30.30,NW,307,4.0,8.0,74,0.00,,CLR,0.00,VWS V14.01,2013-02-01 05:05:00,
2013-01-31 23:09:00,-7.2,-13.3,30.30,WNW,294,3.0,6.0,74,0.00,,CLR,0.00,VWS V14.01,2013-02-01 05:09:00,
2013-01-31 23:15:00,-7.3,-13.4,30.30,WNW,295,6.0,8.0,74,0.00,,CLR,0.00,VWS V14.01,2013-02-01 05:15:00,
2013-01-31 23:20:00,-7.4,-13.2,30.30,WNW,290,6.0,6.0,75,0.00,,CLR,0.00,VWS V14.01,2013-02-01 05:20:00,
2013-01-31 23:25:00,-7.4,-13.2,30.30,WNW,290,6.0,6.0,75,0.00,,CLR,0.00,VWS V14.01,2013-02-01 05:25:00,
2013-01-31 23:31:00,-7.4,-13.2,30.30,WNW,290,4.0,4.0,75,0.00,,CLR,0.00,VWS V14.01,2013-02-01 05:31:00,
2013-01-31 23:37:00,-7.5,-13.3,30.31,West,280,7.0,8.0,75,0.00,,CLR,0.00,VWS V14.01,2013-02-01 05:37:00,
2013-01-31 23:43:00,-7.6,-13.4,30.31,West,266,4.0,7.0,75,0.00,,CLR,0.00,VWS V14.01,2013-02-01 05:43:00,
2013-01-31 23:49:00,-7.6,-13.4,30.31,WNW,298,4.0,8.0,75,0.00,,CLR,0.00,VWS V14.01,2013-02-01 05:49:00,
2013-01-31 23:55:00,-7.6,-13.4,30.31,WNW,290,6.0,6.0,75,0.00,,CLR,0.00,VWS V14.01,2013-02-01 05:55:00,